小惑星A/2019 O2

A/2019 O2

English version
Home page
Updated on October 14, 2023

---------------------------------------------------------------------

・ プロフィール

発見日 2019年7月24日
発見光度 20.5等
発見者 Pan-STARRS 1 telescope (Haleakala)

・ 写真集

・ 軌道要素

Epoch 2023 Feb. 25.0 TT = JDT 2460000.5
T 2023 Apr. 7.30312 TT                                  Rudenko
q   9.6827888            (2000.0)            P               Q
z  +0.0172912      Peri.  129.64313     -0.39157779     -0.54006948
 +/-0.0000004      Node    48.26398     -0.76972216     -0.25136278
e   0.8325726      Incl.   93.30639     +0.50417718     -0.80320714
H    9.5
>From 311 observations 2011 Nov. 28-2023 Jan. 24, mean residual 0".3.

・ 光度変化

        H = 9.2  G = 0.15

---------------------------------------------------------------------

軌道要素はM.P.E.C. 2023-C45に掲載されたものです。
光度グラフはComet for Windowsで作成したものです。

---------------------------------------------------------------------

Copyright(C) Seiichi Yoshida (comet@aerith.net). All rights reserved.